M3SXA-5 Weather Reports


Display with metric or nautical units.
time (UTC)temp
F
wind
direction
speed
MPH
gust
MPH
rain 1hr
in
rain 24hr
in
rain mn
in
humidity
%
barometer
mb
20260506041519 44 136 2.0 5.0 0.00 0.00 0.00 82 1015.0
20260506040037 44 175 1.0 4.0 0.00 0.00 0.00 81 1014.9
20260506034514 44 155 1.0 6.0 0.00 0.00 0.00 81 1015.0
20260506033013 44 148 1.0 7.0 0.00 0.00 0.00 80 1015.0
20260506031526 44 186 1.0 7.0 0.00 0.00 0.00 80 1015.1
20260506030010 45 149 1.0 7.0 0.00 0.00 0.00 80 1015.1
20260506024516 45 165 2.0 6.0 0.00 0.00 0.00 80 1015.0
20260506023006 45 153 1.0 5.0 0.00 0.00 0.00 80 1015.2
20260506021503 45 146 0.0 2.0 0.00 0.00 0.00 79 1015.2
20260506020002 45 153 0.0 5.0 0.00 0.00 0.00 79 1015.2
20260506014501 45 235 2.0 5.0 0.00 0.00 0.00 78 1015.2
20260506013058 46 163 1.0 8.0 0.00 0.00 0.00 78 1015.4
20260506011606 46 159 0.0 4.0 0.00 0.00 0.00 81 1015.3
20260506010058 46 320 0.0 6.0 0.00 0.00 0.00 80 1015.5
20260506004553 46 159 1.0 4.0 0.00 0.00 0.00 80 1015.4
20260506003052 46 159 1.0 6.0 0.00 0.00 0.00 81 1015.4
20260506001550 47 161 1.0 7.0 0.00 0.00 0.00 81 1015.3
20260506000047 47 83 0.0 5.0 0.00 0.00 0.00 80 1015.4
20260505234556 47 146 1.0 5.0 0.00 0.00 0.00 79 1015.5
20260505233050 47 330 0.0 6.0 0.00 0.00 0.00 78 1015.7
20260505231550 47 121 1.0 7.0 0.00 0.00 0.00 79 1015.5
20260505230040 48 155 1.0 5.0 0.00 0.00 0.00 80 1015.7
20260505224540 48 187 2.0 7.0 0.00 0.00 0.00 79 1015.6
20260505223049 49 200 2.0 5.0 0.00 0.00 0.00 79 1015.6
20260505221539 49 124 1.0 7.0 0.00 0.00 0.00 79 1015.5
20260505220041 50 308 1.0 6.0 0.00 0.00 0.00 80 1015.4
20260505214547 50 141 0.0 8.0 0.00 0.00 0.00 80 1015.3
20260505213038 50 154 3.0 6.0 0.00 0.00 0.00 79 1015.3
20260505211537 50 326 1.0 8.0 0.00 0.00 0.00 78 1015.3
20260505210036 50 343 1.0 6.0 0.00 0.00 0.00 78 1015.2
20260505204536 51 336 2.0 9.0 0.00 0.00 0.00 77 1015.1
20260505203035 51 356 3.0 7.0 0.00 0.00 0.00 76 1015.0
20260505201535 52 131 1.0 4.0 0.00 0.00 0.00 75 1014.9
20260505200040 52 340 2.0 7.0 0.00 0.00 0.00 74 1014.8
20260505194533 54 134 1.0 5.0 0.00 0.00 0.00 74 1014.5
20260505193032 54 178 0.0 5.0 0.00 0.00 0.00 71 1014.3
20260505191532 54 173 0.0 4.0 0.00 0.00 0.00 67 1014.1
20260505190037 54 167 1.0 5.0 0.00 0.00 0.00 66 1014.0
20260505184531 55 165 2.0 7.0 0.00 0.00 0.00 66 1013.8
20260505183032 55 150 2.0 8.0 0.00 0.00 0.00 64 1013.6
20260505181529 56 205 2.0 7.0 0.00 0.00 0.00 65 1013.7
20260505180028 56 212 2.0 5.0 0.00 0.00 0.00 65 1013.6
20260505174537 56 202 2.0 6.0 0.00 0.00 0.00 63 1013.6
20260505173026 57 175 3.0 8.0 0.00 0.00 0.00 63 1013.7
20260505171527 57 180 3.0 7.0 0.00 0.00 0.00 63 1013.9
20260505170025 57 216 3.0 8.0 0.00 0.00 0.00 64 1013.8
20260505164524 57 184 3.0 8.0 0.00 0.00 0.00 64 1013.8
20260505163023 57 149 3.0 8.0 0.00 0.00 0.00 63 1013.7
20260505161523 57 133 4.0 10.0 0.00 0.00 0.00 63 1013.7
20260505153019 58 144 3.0 8.0 0.00 0.00 0.00 62 1013.9
20260505151520 58 161 3.0 9.0 0.00 0.00 0.00 62 1013.9
20260505124511 59 204 2.0 5.0 0.00 0.00 0.00 61 1014.3
20260505123005 59 186 1.0 7.0 0.00 0.00 0.00 63 1014.3
20260505121503 59 223 3.0 5.0 0.00 0.00 0.00 62 1014.4
20260505120004 59 210 1.0 8.0 0.00 0.00 0.00 63 1014.4
20260505114503 58 211 2.0 7.0 0.00 0.00 0.00 64 1014.5
20260505113105 57 169 3.0 9.0 0.00 0.00 0.00 65 1014.6
20260505111557 57 186 3.0 7.0 0.00 0.00 0.00 66 1014.7
20260505110116 57 156 3.0 7.0 0.00 0.00 0.00 68 1014.7
20260505101549 55 314 1.0 7.0 0.00 0.00 0.00 74 1015.0
20260505100048 55 183 1.0 4.0 0.00 0.00 0.00 74 1015.1
20260505094545 54 208 2.0 6.0 0.00 0.00 0.00 75 1015.0
20260505093043 54 193 2.0 7.0 0.00 0.00 0.00 76 1015.1
20260505091541 54 120 2.0 5.0 0.00 0.00 0.00 77 1015.1
20260505090040 53 187 2.0 4.0 0.00 0.00 0.00 79 1015.2
20260505084535 52 160 2.0 4.0 0.00 0.00 0.00 79 1015.3
20260505083032 52 154 2.0 4.0 0.00 0.00 0.00 81 1015.3
20260505081541 51 10 0.0 2.0 0.00 0.00 0.00 82 1015.3
20260505080026 50 158 1.0 4.0 0.00 0.00 0.00 81 1015.3
20260505074526 49 188 2.0 5.0 0.00 0.00 0.00 80 1015.4
20260505073034 50 218 0.0 7.0 0.00 0.00 0.00 81 1015.4
20260505071542 48 213 1.0 5.0 0.00 0.00 0.00 83 1015.4
20260505070022 49 153 1.0 4.0 0.00 0.00 0.00 84 1015.3
20260505064524 49 162 1.0 6.0 0.00 0.00 0.00 84 1015.5
20260505063018 49 158 2.0 7.0 0.00 0.00 0.00 85 1015.4
20260505061515 48 210 1.0 4.0 0.00 0.00 0.00 90 1015.4
20260505060012 47 183 0.0 4.0 0.00 0.00 0.00 91 1015.5
20260505054511 47 241 0.0 3.0 0.00 0.01 0.00 92 1015.5
20260505053012 47 206 0.0 3.0 0.00 0.01 0.00 92 1015.6
20260505051509 47 191 0.0 3.0 0.00 0.01 0.00 92 1015.6